Kake, AK

10:11 PM AKST on November 18, 2017 (GMT -0900)
Kake

Weather History for PAFE - November, 2012

Change the Weather History Date:

Thursday, November 15, 2012

  Actual Average Record
Temperature  
Mean Temperature 40 °F -  
Max Temperature 42 °F 39 °F 46 °F (2002)
Min Temperature 37 °F 32 °F 26 °F (1998)
Degree Days  
Heating Degree Days 26    
Moisture  
Dew Point 35 °F    
Average Humidity 83    
Maximum Humidity 93    
Minimum Humidity 66    
Precipitation  
Precipitation 0.00 in - - ()
Sea Level Pressure  
Sea Level Pressure 29.71 in    
Wind  
Wind Speed 10 mph (ESE)    
Max Wind Speed 13 mph    
Max Gust Speed 21 mph    
Visibility 10 miles    
Events      
Averages and records for this station are not official NWS values.
T = Trace of Precipitation, MM = Missing Value Source: NWS Daily Summary

Daily Weather History Graph

Daily Weather History Graph

Search for Another Location

Airport or City:

Trip Planner

Search our weather history database for the weather conditions in past years. The results will help you decide how hot, cold, wet, or windy it might be!

Date:

Astronomy

Nov. 15, 2012 Rise Set
Actual Time 7:38 AM AKST 3:41 PM AKST
Civil Twilight 6:54 AM AKST 4:25 PM AKST
Nautical Twilight 6:07 AM AKST 5:12 PM AKST
Astronomical Twilight 5:22 AM AKST 5:57 PM AKST
Moon 9:57 AM AKST (11/15) 5:25 PM AKST (11/15)
Length of Visible Light 9h 31m
Length of Day
8h 03m
Waxing Crescent, 6% of the Moon is Illuminated
Nov 15
Waxing Crescent
Nov 20
First Quarter
Nov 28
Full
Dec 6
Last Quarter
Dec 12
New

Hourly Weather History & Observations

Time (AKST) Temp. Windchill Dew Point Humidity Pressure Visibility Wind Dir Wind Speed Gust Speed Precip Events Conditions
12:16 AM 37.4 °F 30.8 °F 35.6 °F 93% 29.82 in 10.0 mi East 9.2 mph - N/A   Mostly Cloudy
12:36 AM 39.2 °F 32.5 °F 35.6 °F 87% 29.82 in 10.0 mi ESE 10.4 mph - N/A   Overcast
12:56 AM 39.2 °F 32.5 °F 35.6 °F 87% 29.82 in 10.0 mi ESE 10.4 mph - N/A   Overcast
1:16 AM 39.2 °F 32.5 °F 35.6 °F 87% 29.82 in 10.0 mi ESE 10.4 mph - N/A   Mostly Cloudy
1:36 AM 39.2 °F 33.0 °F 35.6 °F 87% 29.82 in 10.0 mi East 9.2 mph - N/A   Mostly Cloudy
1:56 AM 39.2 °F 32.5 °F 35.6 °F 87% 29.82 in 10.0 mi SE 10.4 mph 16.1 mph N/A   Mostly Cloudy
2:16 AM 39.2 °F 33.6 °F 35.6 °F 87% 29.83 in 10.0 mi East 8.1 mph - N/A   Overcast
2:36 AM 39.2 °F 32.5 °F 35.6 °F 87% 29.83 in 10.0 mi SE 10.4 mph - N/A   Overcast
2:56 AM 39.2 °F 32.5 °F 35.6 °F 87% 29.83 in 10.0 mi SE 10.4 mph - N/A   Mostly Cloudy
3:16 AM 39.2 °F 33.6 °F 35.6 °F 87% 29.82 in 10.0 mi SE 8.1 mph - N/A   Mostly Cloudy
3:36 AM 39.2 °F 32.5 °F 35.6 °F 87% 29.82 in 10.0 mi ESE 10.4 mph - N/A   Overcast
3:56 AM 39.2 °F 32.5 °F 35.6 °F 87% 29.82 in 10.0 mi SE 10.4 mph - N/A   Mostly Cloudy
4:16 AM 39.2 °F 33.6 °F 33.8 °F 81% 29.82 in 10.0 mi ESE 8.1 mph - N/A   Overcast
4:36 AM 37.4 °F 30.8 °F 33.8 °F 87% 29.81 in 10.0 mi SE 9.2 mph - N/A   Mostly Cloudy
4:56 AM 39.2 °F 33.0 °F 33.8 °F 81% 29.81 in 10.0 mi ESE 9.2 mph - N/A   Overcast
5:36 AM 39.2 °F 32.5 °F 35.6 °F 87% 29.80 in 10.0 mi ESE 10.4 mph 16.1 mph N/A   Overcast
5:56 AM 39.2 °F 33.6 °F 35.6 °F 87% 29.79 in 10.0 mi ESE 8.1 mph - N/A   Overcast
6:36 AM 39.2 °F 33.0 °F 35.6 °F 87% 29.80 in 10.0 mi ESE 9.2 mph - N/A   Overcast
6:56 AM 39.2 °F 32.5 °F 35.6 °F 87% 29.80 in 10.0 mi ESE 10.4 mph - N/A   Overcast
7:16 AM 39.2 °F 33.0 °F 35.6 °F 87% 29.80 in 10.0 mi ESE 9.2 mph - N/A   Overcast
7:36 AM 39.2 °F 33.0 °F 35.6 °F 87% 29.80 in 10.0 mi ESE 9.2 mph - N/A   Overcast
7:56 AM 39.2 °F 32.0 °F 35.6 °F 87% 29.80 in 10.0 mi SE 11.5 mph 16.1 mph N/A   Overcast
8:16 AM 39.2 °F 31.6 °F 35.6 °F 87% 29.80 in 8.0 mi SE 12.7 mph - N/A   Overcast
8:36 AM 39.2 °F 32.0 °F 35.6 °F 87% 29.79 in 10.0 mi ESE 11.5 mph 16.1 mph N/A   Overcast
8:56 AM 39.2 °F 32.0 °F 35.6 °F 87% 29.80 in 10.0 mi SE 11.5 mph - N/A   Overcast
9:16 AM 39.2 °F 32.5 °F 35.6 °F 87% 29.80 in 10.0 mi ESE 10.4 mph 16.1 mph N/A   Overcast
9:36 AM 39.2 °F 33.0 °F 35.6 °F 87% 29.80 in 10.0 mi ESE 9.2 mph - N/A   Overcast
9:56 AM 39.2 °F 32.5 °F 35.6 °F 87% 29.79 in 10.0 mi ESE 10.4 mph - N/A   Overcast
10:16 AM 39.2 °F 32.5 °F 35.6 °F 87% 29.79 in 10.0 mi SE 10.4 mph 17.3 mph N/A   Overcast
10:36 AM 39.2 °F 33.0 °F 35.6 °F 87% 29.79 in 10.0 mi ESE 9.2 mph - N/A   Overcast
10:56 AM 39.2 °F 33.0 °F 35.6 °F 87% 29.78 in 10.0 mi ESE 9.2 mph - N/A   Overcast
11:16 AM 39.2 °F 33.6 °F 35.6 °F 87% 29.78 in 10.0 mi ESE 8.1 mph - N/A   Overcast
11:36 AM 39.2 °F 32.5 °F 35.6 °F 87% 29.77 in 10.0 mi SE 10.4 mph 17.3 mph N/A   Overcast
11:56 AM 39.2 °F 32.5 °F 35.6 °F 87% 29.76 in 10.0 mi SE 10.4 mph 18.4 mph N/A   Mostly Cloudy
12:16 PM 39.2 °F 34.2 °F 35.6 °F 87% 29.76 in 10.0 mi ESE 6.9 mph - N/A   Overcast
12:36 PM 39.2 °F 35.0 °F 35.6 °F 87% 29.76 in 10.0 mi ESE 5.8 mph - N/A   Overcast
12:56 PM 39.2 °F 34.2 °F 35.6 °F 87% 29.75 in 10.0 mi ESE 6.9 mph - N/A   Overcast
1:16 PM 41.0 °F 36.4 °F 35.6 °F 81% 29.74 in 10.0 mi ESE 6.9 mph - N/A   Overcast
1:36 PM 41.0 °F 34.7 °F 35.6 °F 81% 29.73 in 10.0 mi ESE 10.4 mph - N/A   Overcast
1:56 PM 41.0 °F 34.3 °F 35.6 °F 81% 29.72 in 10.0 mi ESE 11.5 mph 17.3 mph N/A   Overcast
2:16 PM 41.0 °F 35.2 °F 35.6 °F 81% 29.72 in 10.0 mi East 9.2 mph 17.3 mph N/A   Overcast
2:36 PM 41.0 °F 35.2 °F 35.6 °F 81% 29.71 in 10.0 mi ESE 9.2 mph - N/A   Overcast
2:56 PM 41.0 °F 35.2 °F 35.6 °F 81% 29.70 in 10.0 mi ESE 9.2 mph 17.3 mph N/A   Overcast
3:16 PM 39.2 °F 32.5 °F 35.6 °F 87% 29.70 in 10.0 mi East 10.4 mph - N/A   Mostly Cloudy
3:36 PM 39.2 °F 33.0 °F 35.6 °F 87% 29.69 in 10.0 mi ESE 9.2 mph - N/A   Overcast
3:56 PM 39.2 °F 33.6 °F 33.8 °F 81% 29.68 in 10.0 mi East 8.1 mph 20.7 mph N/A   Scattered Clouds
4:16 PM 39.2 °F 32.5 °F 33.8 °F 81% 29.68 in 10.0 mi East 10.4 mph - N/A   Mostly Cloudy
4:36 PM 39.2 °F 33.0 °F 33.8 °F 81% 29.67 in 10.0 mi East 9.2 mph - N/A   Overcast
4:56 PM 39.2 °F 33.0 °F 33.8 °F 81% 29.67 in 10.0 mi ESE 9.2 mph 16.1 mph N/A   Overcast
5:16 PM 39.2 °F 33.6 °F 33.8 °F 81% 29.66 in 10.0 mi East 8.1 mph - N/A   Overcast
5:36 PM 39.2 °F 34.2 °F 33.8 °F 81% 29.65 in 10.0 mi East 6.9 mph - N/A   Overcast
5:56 PM 39.2 °F 33.0 °F 33.8 °F 81% 29.65 in 10.0 mi East 9.2 mph - N/A   Scattered Clouds
6:16 PM 39.2 °F 33.0 °F 33.8 °F 81% 29.64 in 10.0 mi East 9.2 mph - N/A   Mostly Cloudy
6:36 PM 39.2 °F 32.5 °F 33.8 °F 81% 29.63 in 10.0 mi East 10.4 mph - N/A   Overcast
6:56 PM 39.2 °F 32.0 °F 33.8 °F 81% 29.63 in 10.0 mi East 11.5 mph - N/A   Overcast
7:16 PM 39.2 °F 33.0 °F 33.8 °F 81% 29.62 in 10.0 mi East 9.2 mph - N/A   Overcast
7:36 PM 39.2 °F 33.0 °F 33.8 °F 81% 29.61 in 10.0 mi East 9.2 mph - N/A   Overcast
7:56 PM 39.2 °F 33.0 °F 33.8 °F 81% 29.60 in 10.0 mi East 9.2 mph - N/A   Overcast
8:16 PM 39.2 °F 32.0 °F 33.8 °F 81% 29.58 in 10.0 mi East 11.5 mph 17.3 mph N/A   Overcast
8:36 PM 39.2 °F 32.0 °F 33.8 °F 81% 29.58 in 10.0 mi ESE 11.5 mph 16.1 mph N/A   Overcast
8:56 PM 39.2 °F 32.5 °F 33.8 °F 81% 29.57 in 10.0 mi East 10.4 mph 17.3 mph N/A   Overcast
9:16 PM 39.2 °F 33.0 °F 33.8 °F 81% 29.55 in 10.0 mi East 9.2 mph - N/A   Mostly Cloudy
9:36 PM 41.0 °F 34.7 °F 33.8 °F 76% 29.54 in 10.0 mi ESE 10.4 mph - N/A   Mostly Cloudy
9:56 PM 41.0 °F 36.4 °F 32.0 °F 70% 29.53 in 10.0 mi ESE 6.9 mph - N/A   Mostly Cloudy
10:16 PM 41.0 °F 34.3 °F 33.8 °F 76% 29.52 in 10.0 mi East 11.5 mph 16.1 mph N/A   Mostly Cloudy
10:36 PM 42.8 °F 37.0 °F 32.0 °F 66% 29.51 in 10.0 mi ESE 10.4 mph 17.3 mph N/A   Mostly Cloudy
10:56 PM 41.0 °F 35.8 °F 32.0 °F 70% 29.50 in 10.0 mi ESE 8.1 mph - N/A   Mostly Cloudy
11:16 PM 42.8 °F 38.6 °F 32.0 °F 66% 29.49 in 10.0 mi East 6.9 mph - N/A   Overcast
11:36 PM 39.2 °F 35.0 °F 32.0 °F 75% 29.48 in 10.0 mi East 5.8 mph - N/A   Overcast
11:56 PM 39.2 °F 35.0 °F 32.0 °F 75% 29.46 in 10.0 mi East 5.8 mph - N/A   Overcast